Mount Werner, CO

1:56 PM MDT on March 27, 2017 (GMT -0600)
Mount Werner

Weather History for K3MW - April, 2014

Change the Weather History Date:

Thursday, April 24, 2014

  Actual Average (KSBS) Record (KSBS)
Temperature  
Mean Temperature 29 °F -  
Max Temperature 39 °F 58 °F 75 °F (1987)
Min Temperature 19 °F 27 °F 10 °F (1920)
Degree Days  
Heating Degree Days 36    
Moisture  
Dew Point 11 °F    
Average Humidity 50    
Maximum Humidity 68    
Minimum Humidity 28    
Precipitation  
Precipitation 0.00 in - - ()
Sea Level Pressure  
Sea Level Pressure 30.12 in    
Wind  
Wind Speed 16 mph (West)    
Max Wind Speed 23 mph    
Max Gust Speed 33 mph    
Visibility 10 miles    
Events      
Averages and records for this station are not official NWS values.
T = Trace of Precipitation, MM = Missing Value Source: NWS Daily Summary

Daily Weather History Graph

Daily Weather History Graph

Search for Another Location

Airport or City:

Trip Planner

Search our weather history database for the weather conditions in past years. The results will help you decide how hot, cold, wet, or windy it might be!

Date:

Astronomy

Apr. 24, 2014 Rise Set
Actual Time 6:15 AM MDT 7:55 PM MDT
Civil Twilight 5:46 AM MDT 8:24 PM MDT
Nautical Twilight 5:11 AM MDT 8:59 PM MDT
Astronomical Twilight 4:34 AM MDT 9:37 PM MDT
Moon 3:29 AM MDT (4/24) 3:13 PM MDT (4/24)
Length of Visible Light 14h 38m
Length of Day
13h 40m
Waning Crescent, 24% of the Moon is Illuminated
Apr 24
Waning Crescent
Apr 29
New
May 6
First Quarter
May 14
Full
May 21
Last Quarter

Hourly Weather History & Observations

Time (MDT) Temp. Windchill Dew Point Humidity Pressure Visibility Wind Dir Wind Speed Gust Speed Precip Events Conditions
12:16 AM 21.2 °F 5.6 °F 10.4 °F 63% 30.05 in 10.0 mi West 20.7 mph 25.3 mph N/A   Scattered Clouds
12:36 AM 21.2 °F 6.8 °F 10.4 °F 63% 30.06 in 10.0 mi WNW 17.3 mph 25.3 mph N/A   Scattered Clouds
12:56 AM 21.2 °F 6.8 °F 10.4 °F 63% 30.06 in 10.0 mi WNW 17.3 mph 23.0 mph N/A   Overcast
1:16 AM 21.2 °F 5.6 °F 10.4 °F 63% 30.06 in 10.0 mi WNW 20.7 mph 26.5 mph N/A   Overcast
1:36 AM 21.2 °F 6.0 °F 10.4 °F 63% 30.05 in 10.0 mi WNW 19.6 mph 26.5 mph N/A   Mostly Cloudy
1:56 AM 21.2 °F 5.2 °F 10.4 °F 63% 30.05 in 10.0 mi WNW 21.9 mph 27.6 mph N/A   Mostly Cloudy
2:16 AM 19.4 °F 4.1 °F 10.4 °F 68% 30.06 in 10.0 mi WNW 18.4 mph 25.3 mph N/A   Mostly Cloudy
2:36 AM 19.4 °F 4.1 °F 10.4 °F 68% 30.06 in 10.0 mi WNW 18.4 mph 25.3 mph N/A   Scattered Clouds
2:56 AM 19.4 °F 5.0 °F 10.4 °F 68% 30.06 in 10.0 mi West 16.1 mph 25.3 mph N/A   Clear
3:13 AM 19.4 °F 5.0 °F 10.4 °F 68% 30.07 in 10.0 mi West 16.1 mph - N/A   Clear
3:36 AM 19.4 °F 5.5 °F 10.4 °F 68% 30.07 in 10.0 mi West 15.0 mph - N/A   Clear
3:56 AM 19.4 °F 4.5 °F 10.4 °F 68% 30.08 in 10.0 mi WSW 17.3 mph - N/A   Clear
4:16 AM 19.4 °F 5.0 °F 10.4 °F 68% 30.08 in 10.0 mi West 16.1 mph 20.7 mph N/A   Clear
4:36 AM 19.4 °F 5.0 °F 10.4 °F 68% 30.08 in 10.0 mi West 16.1 mph 21.9 mph N/A   Clear
4:56 AM 19.4 °F 5.0 °F 10.4 °F 68% 30.08 in 10.0 mi West 16.1 mph - N/A   Clear
5:16 AM 19.4 °F 4.1 °F 10.4 °F 68% 30.08 in 10.0 mi West 18.4 mph - N/A   Clear
5:36 AM 19.4 °F 4.5 °F 10.4 °F 68% 30.08 in 10.0 mi West 17.3 mph 23.0 mph N/A   Clear
5:56 AM 19.4 °F 5.0 °F 10.4 °F 68% 30.09 in 10.0 mi West 16.1 mph - N/A   Clear
6:16 AM 19.4 °F 4.1 °F 10.4 °F 68% 30.09 in 10.0 mi West 18.4 mph 23.0 mph N/A   Clear
6:36 AM 19.4 °F 4.5 °F 10.4 °F 68% 30.09 in 10.0 mi West 17.3 mph 25.3 mph N/A   Clear
6:56 AM 19.4 °F 4.5 °F 10.4 °F 68% 30.10 in 10.0 mi West 17.3 mph 21.9 mph N/A   Clear
7:16 AM 19.4 °F 5.0 °F 10.4 °F 68% 30.11 in 10.0 mi West 16.1 mph 23.0 mph N/A   Clear
7:36 AM 19.4 °F 6.0 °F 10.4 °F 68% 30.12 in 10.0 mi West 13.8 mph - N/A   Clear
7:56 AM 21.2 °F 8.3 °F 10.4 °F 63% 30.13 in 10.0 mi West 13.8 mph - N/A   Clear
8:16 AM 21.2 °F 7.8 °F 10.4 °F 63% 30.14 in 10.0 mi WSW 15.0 mph - N/A   Clear
8:36 AM 21.2 °F 7.8 °F 10.4 °F 63% 30.15 in 10.0 mi WSW 15.0 mph 19.6 mph N/A   Clear
8:56 AM 21.2 °F 7.8 °F 10.4 °F 63% 30.15 in 10.0 mi WSW 15.0 mph 19.6 mph N/A   Clear
9:16 AM 23.0 °F 11.1 °F 10.4 °F 59% 30.15 in 10.0 mi West 12.7 mph 17.3 mph N/A   Clear
9:36 AM 23.0 °F 11.1 °F 12.2 °F 63% 30.15 in 10.0 mi West 12.7 mph - N/A   Clear
9:56 AM 24.8 °F 14.6 °F 10.4 °F 54% 30.16 in 10.0 mi WSW 10.4 mph - N/A   Clear
10:16 AM 26.6 °F 16.8 °F 12.2 °F 55% 30.16 in 10.0 mi West 10.4 mph 16.1 mph N/A   Clear
10:36 AM 26.6 °F 17.5 °F 12.2 °F 55% 30.16 in 10.0 mi WSW 9.2 mph - N/A   Clear
10:56 AM 28.4 °F 21.2 °F 12.2 °F 51% 30.16 in 10.0 mi WSW 6.9 mph - N/A   Clear
11:16 AM 30.2 °F 21.3 °F 12.2 °F 47% 30.16 in 10.0 mi West 10.4 mph - N/A   Clear
11:36 AM 30.2 °F 21.9 °F 12.2 °F 47% 30.16 in 10.0 mi SW 9.2 mph - N/A   Clear
11:56 AM 30.2 °F 21.9 °F 12.2 °F 47% 30.16 in 10.0 mi West 9.2 mph - N/A   Clear
12:16 PM 32.0 °F 23.6 °F 10.4 °F 41% 30.15 in 10.0 mi West 10.4 mph 17.3 mph N/A   Clear
12:36 PM 32.0 °F 23.0 °F 10.4 °F 41% 30.15 in 10.0 mi West 11.5 mph 19.6 mph N/A   Clear
12:56 PM 32.0 °F 22.5 °F 10.4 °F 41% 30.15 in 10.0 mi WSW 12.7 mph 16.1 mph N/A   Clear
1:16 PM 32.0 °F 24.2 °F 12.2 °F 44% 30.15 in 10.0 mi West 9.2 mph - N/A   Scattered Clouds
1:36 PM 33.8 °F 24.3 °F 10.4 °F 38% 30.14 in 10.0 mi West 13.8 mph 19.6 mph N/A   Scattered Clouds
1:56 PM 33.8 °F 25.3 °F 12.2 °F 41% 30.14 in 10.0 mi West 11.5 mph 20.7 mph N/A   Scattered Clouds
2:16 PM 33.8 °F 27.0 °F 10.4 °F 38% 30.14 in 10.0 mi West 8.1 mph 18.4 mph N/A   Clear
2:36 PM 35.6 °F 28.0 °F 10.4 °F 35% 30.14 in 10.0 mi WSW 10.4 mph - N/A   Clear
2:56 PM 35.6 °F 27.1 °F 10.4 °F 35% 30.13 in 10.0 mi West 12.7 mph 23.0 mph N/A   Scattered Clouds
3:16 PM 35.6 °F 27.1 °F 10.4 °F 35% 30.13 in 10.0 mi West 12.7 mph 18.4 mph N/A   Scattered Clouds
3:36 PM 37.4 °F 28.9 °F 10.4 °F 33% 30.13 in 10.0 mi West 13.8 mph 19.6 mph N/A   Scattered Clouds
3:56 PM 37.4 °F 28.5 °F 10.4 °F 33% 30.12 in 10.0 mi West 15.0 mph 21.9 mph N/A   Mostly Cloudy
4:16 PM 39.2 °F 30.8 °F 12.2 °F 33% 30.12 in 10.0 mi West 15.0 mph 21.9 mph N/A   Mostly Cloudy
4:36 PM 37.4 °F 28.9 °F 12.2 °F 36% 30.12 in 10.0 mi WSW 13.8 mph 26.5 mph N/A   Mostly Cloudy
4:56 PM 37.4 °F 27.8 °F 12.2 °F 36% 30.11 in 10.0 mi SW 17.3 mph 26.5 mph N/A   Mostly Cloudy
5:16 PM 37.4 °F 26.9 °F 12.2 °F 36% 30.10 in 10.0 mi West 20.7 mph 32.2 mph N/A   Overcast
5:36 PM 39.2 °F 28.7 °F 10.4 °F 31% 30.10 in 10.0 mi WSW 23.0 mph 33.4 mph N/A   Mostly Cloudy
5:56 PM 39.2 °F 29.8 °F 8.6 °F 28% 30.11 in 10.0 mi West 18.4 mph 28.8 mph N/A   Mostly Cloudy
6:16 PM 37.4 °F 27.5 °F 10.4 °F 33% 30.11 in 10.0 mi West 18.4 mph 29.9 mph N/A   Overcast
6:36 PM 37.4 °F 27.5 °F 10.4 °F 33% 30.12 in 10.0 mi West 18.4 mph 29.9 mph N/A   Overcast
6:56 PM 35.6 °F 24.8 °F 10.4 °F 35% 30.12 in 10.0 mi West 19.6 mph 28.8 mph N/A   Overcast
7:16 PM 35.6 °F 26.6 °F 10.4 °F 35% 30.13 in 10.0 mi West 13.8 mph 28.8 mph N/A   Overcast
7:36 PM 35.6 °F 25.2 °F 10.4 °F 35% 30.13 in 10.0 mi West 18.4 mph 24.2 mph N/A   Overcast
7:56 PM 35.6 °F 25.5 °F 12.2 °F 38% 30.14 in 10.0 mi West 17.3 mph 21.9 mph N/A   Overcast
8:16 PM 35.6 °F 27.1 °F 12.2 °F 38% 30.14 in 10.0 mi West 12.7 mph 18.4 mph N/A   Overcast
8:36 PM 35.6 °F 26.6 °F 12.2 °F 38% 30.14 in 10.0 mi West 13.8 mph 24.2 mph N/A   Overcast
8:56 PM 35.6 °F 26.6 °F 12.2 °F 38% 30.15 in 10.0 mi West 13.8 mph 21.9 mph N/A   Overcast
9:16 PM 35.6 °F 27.5 °F 12.2 °F 38% 30.16 in 10.0 mi West 11.5 mph 21.9 mph N/A   Overcast
9:36 PM 35.6 °F 28.0 °F 12.2 °F 38% 30.16 in 10.0 mi West 10.4 mph 18.4 mph N/A   Overcast
9:56 PM 35.6 °F 26.6 °F 12.2 °F 38% 30.16 in 10.0 mi West 13.8 mph 24.2 mph N/A   Overcast
10:16 PM 35.6 °F 27.1 °F 12.2 °F 38% 30.16 in 10.0 mi WSW 12.7 mph 28.8 mph N/A   Overcast
10:36 PM 35.6 °F 27.1 °F 12.2 °F 38% 30.16 in 10.0 mi WSW 12.7 mph - N/A   Overcast
10:56 PM 35.6 °F 27.1 °F 12.2 °F 38% 30.16 in 10.0 mi West 12.7 mph 24.2 mph N/A   Overcast
11:16 PM 35.6 °F 27.1 °F 14.0 °F 41% 30.15 in 10.0 mi WSW 12.7 mph 18.4 mph N/A   Overcast
11:36 PM 35.6 °F 27.5 °F 12.2 °F 38% 30.16 in 10.0 mi West 11.5 mph - N/A   Mostly Cloudy
11:56 PM 33.8 °F 24.8 °F 12.2 °F 41% 30.15 in 10.0 mi West 12.7 mph 16.1 mph N/A   Scattered Clouds